World > North America > United States > Florida > Amelia Island   City of Fernandina Beach, FL

Amelia Island, FL Hourly Weather Updates

Feedback E-mail the Weather

Quick Clicks

Amelia Island, FL Weather Maps

°F °C°F °C
Amelia Island Weather Map
UTC Time: 4/20/2024, 14:34
Your Time:

Amelia Island, FL Regional Weather

Expires:202404201500;;074562
ASUS42 KTBW 201411
RWRFL 
FLORIDA REGIONAL WEATHER ROUNDUP
NATIONAL WEATHER SERVICE TAMPA BAY RUSKIN FL
1000 AM EDT SAT APR 20 2024

NOTE: "FAIR" INDICATES FEW OR NO CLOUDS BELOW 12,000 FEET WITH NO
SIGNIFICANT WEATHER AND/OR OBSTRUCTIONS TO VISIBILITY.


FLZ011-016>038-118-127-128-134-139-239-201500-
NORTH FLORIDA
  
CITY           SKY/WX    TMP DP  RH WIND       PRES   REMARKS
TALLAHASSEE    CLOUDY    73  68  84 NW7       30.09R                  
LIVE OAK       CLOUDY    68  70 100 W5        30.10R                  
CROSS CITY     SUNNY     72  70  94 N7        30.11R                  
LAKE CITY      PTSUNNY   68  68 100 SW5       30.10R                  
GAINESVILLE    SUNNY     74  68  81 N3        30.12S                  
WILLISTON      CLOUDY    68  68  99 CALM      30.12R FOG              
PALATKA        SUNNY     73  70  88 CALM      30.10S                  
MAYPORT NAS    SUNNY     80  68  66 W6        30.07S                  
JACKSONVILLE   MOSUNNY   77  68  73 W5        30.07S                  
JAX NAS        MOSUNNY   77  67  71 CALM      30.09R                  
JAX CECIL      SUNNY     77  68  73 VRB5      30.09S                  
FERNANDINA BEA SUNNY     77  68  73 CALM      30.07S                  
ST AUGUSTINE   SUNNY     77  69  76 W5        30.10R                  
PALM COAST     CLOUDY    68  66  94 NW5       30.10S                  

STATION/POSITION SKY/WX   TEMP    WIND        PRES    WAVE   SWELL
                          AIR SEA DIR/SP/G            HT/PER HT/PER
                          (F)     (DEG/KT/KT) (MB)    (FT/S) (FT/S)
SHELL POINT      NOT AVBL
KEATON BEACH     NOT AVBL
CEDAR KEY        NOT AVBL
FERNANDINA                 76 72  250/  2/  5 1017.7R
30.7N   81.3W              71 71                N/A     2/10   2/13
MAYPORT                    73 70  270/  5/  7 1018.8R
31.4N   80.9W              72 72  260/  8/ 10 1017.5S   2/10   2/10
ST AUGUSTINE               76 71   CALM  /  3 1018.5R

$$

SKY/WX - Weather  TMP - Temperature  DP - Dew Point  RH - Humidity
WIND - Wind Direction/Speed PRES - Barometric Pressure VSB - Visibility
WCI - Wind Chill Index E13G22 Wind - East Wind 13 mph/Gusts of 22 mph

Trending Headlines

Trending Entertainment Headlines

Amelia Island Radar Loop

Use the map search tool if you want to place a location marker on the radar map...

Amelia Island Quick Facts

National Two Day Weather Forecast


E-mail the Amelia Island Weather Forecast

Voice your opinion or tell us about page issues...